STARLINK-4167, 53033

Orbit data source: Space-Track

STARLINK-4167, 53033 is a payload satellite owned by SpaceX/Seattle (US) in LEO that was launched on Thu, 07 Jul 2022 UTC via an FALCON 9 launch vehicle from the Air Force Eastern Test Range (AFETR). Payload-class satellites include a variety of spacecraft equipped with specific instruments for various scientific and technological missions. These include communications satellites like Starlink; space stations such as the ISS; scientific satellites like the Hubble; Earth observation satellites from companies like Planet Labs, Umbra, and HawkEye 360; GPS; miniature CubeSats for education and research; and military/defense satellites.

Loading next visibility...
Identifier
53033, 2022-076AZ
Orbit
LEO
Country
Flag of USUS
Related business
Manufacturer
SpaceX/Seattle
Mission
Operational spacecraft
Bus & Motor
STARLINK, Unknown motor
Mass
297 kg wet, ~275 kg dry
Launch date (UTC)
2022-07-07 (3 years ago)
Launch vehicle
FALCON 9
Launch site
Air Force Eastern Test Range (AFETR)
Object type
Payload
Rocket body
Debris
Shape & HBR
Unknown shape, 10.1 m
Radar Cross Section
Large (>1 m²)

Expand to show TLE details & history
Last TLE update: 15 hours ago

TLE from 15 hours ago
0 STARLINK-4167
1 53033U 22076AZ  25340.82263021  .00003598  00000-0  24385-3 0  9999
2 53033  53.2178 131.0165 0001139  78.1530 281.9590 15.08864256189105
Epoch: 2025-12-06T19:44Z
TLE epoch observation values (Epoch: 2025-12-06T19:44:35.250Z)
Latitude
0.00001°
Longitude
119.02478°
Altitude
540.404 km
Speed
7.593 km/s
True Right ascension
08h 44m 03s
True Declination
0° 00' 00"
Sunlit
Object was in full shadow at epoch
Visualization orbit readout
Latitude
Unknown
Longitude
Unknown
Altitude
Unknown
Speed
Unknown
Apparent Right ascension
Unknown
Apparent Declination
Unknown
Sunlit
N/A
Visualization observer readout
Local Sidereal Time
08:31:50
Azimuth
Unknown
Elevation
Unknown
Doppler factor
Unknown
Orbital elements
Apogee altitude
540.702 km
Perigee altitude
539.126 km
Semi-major axis
6,918.051 km
Eccentricity
0.00011
Inclination
53.2178°
RAAN
131.0165°
Arg. of periapsis
78.153°
True anomaly
281.94623°
Mean anomaly
281.959°
Eccentric anomaly
281.95262°
Mean motion
3.77196 °/min
Orbital period
95.44 mins
BSTAR
0.00024385
Loading maneuver chart data...
Computing Atmospheric mass density...
Loading historical data...
Loading historical data...
Loading historical data...
Loading historical data...
Loading historical data...
Loading historical data...
Loading historical data...

Documentation

Showing up to 5 results
|